Weather in Zarechny

Russia / Penza Oblast     53°11′45″N   45°10′08″E
temp.,
°C
wind,
m/s
gust,
m/s
humid.,
%
clouds,
%
prec.,
mm/h
press.,
hPa
HPBL,
m
4 march, thu
thu400:00−8wsw389791 0.1 1011207
03:00−5wsw4119595 0.2 1010540
06:00−2wsw51193100 0.2 1007823
09:00−1wsw61290100 0.4 1005851
12:00+1wsw71489100 0.2 10031101
15:00+1wsw71488100 0.2 10021084
18:000wsw61387100 0.0 10021097
21:00−1wsw51191100 0.2 1002773
5 march, fri
fri500:00−1wsw41195100 0.2 1001582
03:00−2wsw41096100 0.4 1001585
06:00−2w3897100 1.1 1001512
09:00−3n3695100 1.8 1003455
12:00−1nnw3588100 0.2 1006680
15:00−2nnw358493 0.3 1008737
18:00−7wnw129318 0.0 101121
21:00−9wsw129430 0.0 101421
6 march, sat
sat600:00−10wsw229684 0.0 101424
03:00−11w229786 0.0 101623
06:00−12nw1297100 0.0 101621
09:00−9nnw1292100 0.0 1017179
12:00−6n2382100 0.0 1016480
15:00−6n2379100 0.0 1016520
18:00−11n229067 0.0 101521
21:00−15ne019033 0.0 101620
7 march, sun
sun700:00−15w019025 0.0 101620
03:00−15sw128852 0.0 101520
06:00−13sw279497 0.1 1015216
09:00−10wsw489498 0.2 1015356
12:00−6sw5108189 0.0 1012807
15:00−6sw6128283 0.0 1010882
18:00−6ssw71582100 0.0 10061201
21:00−5sw81791100 0.8 10031270
8 march, mon
mon800:00−4wsw61394100 0.6 1002970
03:00−9w3783100 0.9 1003164
06:00−12ssw23950 0.0 100465
09:00−7s388348 0.0 1002313
12:00−3s3894100 0.8 999557
15:00−2wsw8147699 2.6 9991809
18:00−9w6148089 0.3 10031042
21:00−9w7158478 0.3 1007902